Location: Doverdale
(52.2833°N, 2.2000°W)
Time: 14:37:47
(UTC+00:00)

Daily predictions for brighter satellites

Satellite Brightness Start Highest point End
(mag) Time Altitude Azimuth Time Altitude Azimuth Time Altitude Azimuth
BREEZE-M TANK 4.5 17:08:22 10° WSW 17:20:19 47° S 17:24:12 10° ESE
Meteor 2-21 Rocket 4.5 17:14:11 10° N 17:20:23 70° ENE 17:26:29 10° SSE
Helios 1A Rocket 4.1 17:17:32 10° ESE 17:20:49 23° ENE 17:24:05 10° N
YAOGAN 1 3.9 17:20:09 10° ESE 17:23:17 20° ENE 17:26:26 10° NNE
Cosmos 1340 3.1 17:21:29 10° N 17:25:04 39° ENE 17:28:38 10° SE
Cosmos 44 3.5 17:23:24 10° SSW 17:27:48 51° SE 17:32:30 10° NE
NOAA 11 4.2 17:22:44 10° SSE 17:28:05 61° ENE 17:33:27 10° N
CZ-2D R/B 4.2 17:25:33 10° ESE 17:28:44 26° ENE 17:31:55 10° N
Radarsat Rocket 4.5 17:23:54 10° S 17:29:48 65° WSW 17:35:38 10° NNW
Okean O Rocket 1.7 17:25:31 10° SSE 17:29:53 84° WSW 17:34:16 10° NNW
Cosmos 2228 3.0 17:25:48 10° S 17:29:59 63° E 17:34:16 10° NNE
Cosmos 1726 Rocket 3.7 17:26:40 10° S 17:30:52 50° E 17:35:09 10° NNE
CZ-4 R/B 2.5 17:28:34 10° ESE 17:31:36 22° ENE 17:34:38 10° N
Cosmos 1758 Rocket 4.3 17:28:14 10° NNW 17:32:36 60° W 17:36:52 10° S
Cosmos 1346 Rocket 3.7 17:29:19 10° N 17:32:47 27° ENE 17:36:12 10° SE
SL-4 R/B 1.7 17:29:19 10° W 17:32:49 81° S 17:36:33 10° E
Cosmos 2058 3.9 17:30:06 10° N 17:33:35 26° ENE 17:37:02 10° SE
Cosmos 2297 Rocket 2.2 17:30:43 10° NNW 17:36:26 84° ENE 17:42:07 10° SSE
Aureole 3 3.6 17:33:58 10° SSE 17:36:33 26° E 17:39:09 10° NNE
Cosmos 2369 Rocket 3.9 17:31:56 10° W 17:36:52 29° NW 17:41:50 10° NNE
CORIOLIS 4.3 17:31:49 10° SSE 17:37:11 86° WSW 17:42:36 10° NNW
In-Cosmos 22 Rocket 4.2 17:33:04 10° N 17:38:21 55° ENE 17:43:42 10° SSE
Cosmos 1980 Rocket 3.9 17:37:07 10° ESE 17:38:37 11° E 17:39:22 11° E
Cosmos 1452 Rocket 4.5 17:35:13 10° SW 17:40:20 49° WNW 17:45:29 10° NNE
Cosmos 1953 4.4 17:38:05 10° SW 17:41:34 29° WNW 17:45:06 10° N
CZ-2C R/B 3.8 17:40:17 10° SE 17:45:27 36° ENE 17:50:27 10° N
Cosmos 1315 Rocket 4.2 17:44:33 10° SE 17:47:18 18° E 17:50:05 10° NE
Cosmos 1606 Rocket 3.5 17:42:55 10° S 17:47:18 87° ESE 17:51:46 10° NNE
YAOGAN 6 4.4 17:47:21 10° SSW 17:50:48 37° W 17:54:17 10° NNW
Cosmos 1553 Rocket 4.3 17:45:23 10° SSE 17:51:21 45° E 17:57:15 10° NNE
BREEZE-M R/B 3.5 17:49:45 10° W 17:53:11 65° S 17:59:00 13° ESE
USA 305 3.2 17:49:39 10° WNW 17:53:57 69° SSW 17:58:11 10° ESE
SKYMED 2 4.0 17:50:58 10° NNE 17:55:03 38° E 17:59:07 10° SSE
Meteor 2-10 Rocket 4.1 17:52:27 10° SSE 17:57:04 33° E 18:01:36 10° NNE
Cosmos 1455 3.3 17:56:06 10° SE 17:59:07 23° E 18:02:09 10° NE
Cosmos 292 Rocket 3.8 17:54:31 10° SSW 17:59:21 89° WNW 18:04:14 10° NNE
NOSS 3-4 (A) 4.0 17:52:55 10° NW 17:59:26 52° NNE 18:05:39 14° ESE
NOSS 3-4 (C) 4.0 17:53:02 10° NW 17:59:32 51° NNE 18:05:43 14° ESE
USA 306 3.2 17:56:11 10° WNW 18:00:26 65° SSW 18:04:25 12° SE
Cosmos 1943 Rocket 4.4 17:59:39 10° WNW 18:03:18 18° NNW 18:06:57 10° NNE
SeaSat 1 3.4 18:00:38 17° E 18:03:36 29° NE 18:07:51 10° NNW
H-2A R/B 2.7 18:00:56 10° SE 18:05:53 37° ENE 18:10:52 10° N
FALCON 9 DEB 3.2 18:03:12 10° WSW 18:06:23 56° SSE 18:07:57 26° E
Okean-O 2.7 18:02:46 10° SE 18:07:06 55° ENE 18:11:27 10° N
MOS 1 Rocket 4.4 18:03:36 10° NE 18:07:21 23° E 18:11:14 10° SE
SL-08 R/B 4.4 18:01:23 10° N 18:07:36 77° E 18:13:42 10° SSE
FALCON 9 DEB 3.1 18:05:09 10° WSW 18:08:18 59° SSE 18:09:47 27° E
Cosmos 2219 3.9 18:04:17 10° NW 18:09:57 58° WSW 18:15:34 10° S
Cosmos 1331 Rocket 4.5 18:07:30 10° SW 18:12:36 61° WNW 18:17:44 10° NNE
Aureole 3 Rocket 3.4 18:08:14 10° S 18:12:36 78° E 18:18:50 10° NNE
ATLAS 5 CENTAUR R/B 3.4 18:10:00 10° WNW 18:13:49 25° N 18:17:34 12° NE
Cosmos 1745 Rocket 4.0 18:07:47 10° N 18:14:04 65° ENE 18:20:22 10° SSE
USA 215 3.5 18:10:10 18° E 18:15:07 61° N 18:21:32 10° WNW
Lacrosse 5 2.3 18:12:19 10° WNW 18:17:16 50° N 18:20:11 23° ENE
Cosmos 2082 3.7 18:11:31 10° NNW 18:17:18 82° ENE 18:23:02 10° SSE
Cosmos 1408 2.5 18:13:46 10° N 18:17:23 60° ENE 18:21:02 10° SSE
Cosmos 44 Rocket 4.4 18:15:54 10° SSE 18:19:37 23° ESE 18:19:57 22° ESE
GEOS 3 Rocket 3.8 18:17:20 18° ESE 18:21:13 59° NE 18:26:33 10° NW
ATLAS 2AS CENTAUR R/B 3.1 18:13:58 10° NW 18:21:31 55° NNE 18:26:17 22° E
Cosmos 2278 Rocket 4.4 18:19:52 10° NNW 18:21:42 11° N 18:23:31 10° NNE
ARGOS 3.7 18:17:21 13° SE 18:21:44 38° ENE 18:26:43 10° N
Cosmos 968 Rocket 3.8 18:17:26 10° NNW 18:22:39 69° WSW 18:27:46 10° SSE
ERBS 3.1 18:19:34 10° WNW 18:22:44 38° N 18:23:42 30° NE
Cosmos 1386 Rocket 4.5 18:16:26 10° N 18:22:52 71° ENE 18:29:11 10° SSE
HJ-1C 4.3 18:23:12 30° NE 18:23:12 30° NE 18:25:53 10° N
FALCON 9 DEB 3.0 18:19:48 10° WSW 18:23:02 67° SSE 18:24:00 40° E
Cosmos 1689 Rocket 1.8 18:21:51 17° NNE 18:23:57 65° ESE 18:26:48 10° S
Cosmos 1656 3.6 18:18:49 10° SSW 18:24:22 72° ESE 18:30:02 10° NNE
Cosmos 2058 Rocket 3.2 18:20:50 10° SSW 18:25:20 78° WNW 18:29:53 10° N
Cosmos 1844 Rocket 4.3 18:26:28 10° NNW 18:30:16 18° NNE 18:31:40 16° NE
Cosmos 1076 Rocket 3.4 18:27:31 10° N 18:31:46 67° ENE 18:36:00 10° SSE
FALCON 9 DEB 3.2 18:28:29 10° WNW 18:31:54 68° SSW 18:32:59 39° SE
FALCON 9 DEB 2.8 18:29:19 10° WSW 18:32:32 76° SSE 18:33:07 54° E
Cosmos 1892 3.2 18:30:12 10° NNW 18:34:03 61° W 18:37:52 10° S
SJ 16-02 3.3 18:31:45 10° N 18:33:43 15° NNE 18:33:43 15° NNE
Cosmos 2369 4.0 18:30:22 10° S 18:35:45 44° ESE 18:39:11 21° NE
Cosmos 1777 Rocket 4.3 18:31:43 10° NNW 18:36:43 44° NE 18:38:35 31° ESE
Cosmos 1939 Rocket 3.8 18:34:19 10° S 18:38:08 48° W 18:41:56 10° NNW
Cosmos 2227 Rocket 3.4 18:35:28 10° NW 18:40:49 44° WSW 18:46:08 10° S
H-2A R/B 4.5 18:37:41 10° N 18:40:52 21° WNW 18:44:00 10° WSW
SAR-Lupe-4 4.2 18:38:32 10° N 18:42:04 56° WNW 18:45:35 10° SSW
CSL-04 Rocket 3.6 18:37:32 10° SSE 18:43:02 68° ENE 18:48:31 10° NNW
Cosmos 2263 Rocket 2.5 18:37:40 10° NNW 18:43:11 46° NE 18:45:07 34° E
COSMO-SKYMED 1 2.7 18:38:52 10° NNE 18:43:14 78° WNW 18:47:34 10° SSW
Cosmos 1709 Rocket 4.0 18:37:13 10° N 18:43:35 63° ENE 18:49:54 10° SSE
USA 307 4.0 18:40:02 10° WNW 18:44:04 40° SW 18:46:28 21° SSE
CZ-4B R/B 3.4 18:42:02 10° N 18:44:52 28° WNW 18:47:37 10° SW
CZ-4C R/B 3.2 18:39:54 10° NW 18:46:17 47° NNE 18:49:38 30° E
USA 308 4.1 18:45:02 10° WNW 18:49:01 38° SW 18:51:16 21° SSE
Cosmos 1825 2.0 18:45:47 10° N 18:49:36 89° E 18:52:23 18° S
Cosmos 1400 Rocket 4.1 18:45:46 10° SW 18:49:41 43° WNW 18:53:35 10° N
ERS-2 4.1 18:46:46 10° N 18:49:58 29° WNW 18:53:08 10° SW
Helios 1A Rocket 4.0 18:51:47 10° S 18:55:45 46° W 18:59:44 10° NNW
Cosmos 1697 Rocket 2.6 18:52:14 10° SSW 18:57:48 71° ESE 19:01:26 23° NE
Cosmos 2074 Rocket 4.5 18:52:11 10° N 18:57:53 36° ENE 18:58:05 36° ENE
YAOGAN 1 3.0 18:54:42 10° S 18:59:00 63° WSW 19:03:19 10° NNW
Cosmos 883 Rocket 4.3 18:55:06 10° S 19:01:10 65° E 19:07:14 10° NNE
Cosmos 1812 Rocket 3.4 19:01:32 10° S 19:05:55 85° ESE 19:10:19 10° NNE
CZ-4 R/B 2.5 19:02:44 10° S 19:06:26 42° W 19:10:07 10° NNW
S3M 4.1 19:02:00 10° SSW 19:08:07 78° W 19:14:22 10° N
Okean 3 Rocket 4.5 19:04:01 10° N 19:06:51 34° NNE 19:06:51 34° NNE
Resurs 01 Rocket 4.1 19:11:38 10° NNE 19:11:38 10° NNE 19:11:45 10° NNE
DMSP B5D1-3 4.4 19:03:58 10° NNE 19:09:08 73° ESE 19:14:18 10° S
Cosmos 44 4.4 19:04:51 10° WSW 19:09:13 38° NNW 19:11:52 22° NNE
Cosmos 2058 4.4 19:06:48 10° NNW 19:10:36 37° W 19:14:23 10° SSW
Meteor 2-1 Rocket 4.3 19:06:19 10° SSW 19:11:50 77° WNW 19:17:25 10° N
Cosmos 2315 Rocket 3.9 19:05:53 10° S 19:11:59 64° E 19:18:08 10° NNE
SL-4 R/B 2.6 19:08:47 10° W 19:12:08 42° SSW 19:12:08 42° SSW
Cosmos 2151 2.8 19:09:56 10° N 19:14:07 86° NE 19:14:07 86° NE
MetOp-A 4.3 19:21:44 52° NE 19:21:44 52° NE 19:26:28 10° N
Cosmos 1980 Rocket 2.1 19:15:56 10° SSW 19:21:13 60° SE 19:21:13 60° SE
Cosmos 1992 Rocket 4.2 19:16:28 10° SSW 19:21:40 70° WNW 19:25:34 18° NNE
Cosmos 1315 Rocket 3.6 19:19:36 10° SSW 19:23:29 50° WNW 19:27:27 10° N
CZ-2C R/B 4.2 19:19:38 10° S 19:25:12 48° W 19:30:35 10° NNW
Geosat 4.2 19:33:07 55° S 19:33:07 55° S 19:37:07 10° SSW
Ariane Rocket 3.2 19:33:54 59° NNE 19:33:54 59° NNE 19:38:11 10° NNW
Cosmos 1455 3.7 19:31:02 10° SW 19:34:33 35° WNW 19:38:07 10° N
Cosmos 2227 4.1 19:32:19 10° NNW 19:37:59 83° WSW 19:38:36 71° S
SeaSat 1 2.6 19:40:26 65° SSW 19:40:49 68° WSW 19:45:46 10° NW
Cosmos 2360 4.3 19:39:20 10° SW 19:45:04 74° WNW 19:46:40 48° NNE
H-2A R/B 3.2 19:40:03 10° S 19:45:14 44° W 19:50:28 10° NNW
MOS 1 Rocket 3.9 19:41:19 10° N 19:45:54 58° WNW 19:50:46 10° SSW
NOSS 3-4 (A) 4.1 19:43:51 10° NW 19:50:39 62° SW 19:53:07 42° S
NOSS 3-4 (C) 4.1 19:43:58 10° NW 19:50:46 63° SW 19:53:11 43° S
IRS-1A Rocket 4.2 19:53:43 79° NW 19:53:43 79° NW 19:58:57 10° NNW
Cosmos 2278 3.7 19:49:28 10° SSW 19:54:44 74° WSW 19:54:44 74° WSW
MOS 1 4.3 19:57:22 75° NNW 19:57:22 75° NNW 20:02:33 10° NNW
USA 215 3.1 19:57:31 79° E 19:57:57 86° NNE 20:04:32 10° WNW
ATLAS 5 CENTAUR R/B 3.5 19:55:35 10° NW 19:59:05 27° N 19:59:05 27° N
Lacrosse 5 2.5 19:55:32 10° WNW 19:59:23 52° WNW 19:59:23 52° WNW
Cosmos 44 Rocket 4.5 19:55:50 10° SW 19:58:43 36° WSW 19:58:43 36° WSW
Meteor 2-3 Rocket 4.0 19:55:43 10° NNW 20:01:24 65° W 20:01:56 62° SW
ARGOS 4.2 19:58:53 22° SSW 20:01:58 42° W 20:07:09 10° NNW
NOSS 3-3 (A) 4.2 19:56:26 10° WSW 20:02:27 68° NW 20:03:38 56° NNE
NOSS 3-3 (C) 4.2 19:56:32 10° WSW 20:02:34 68° NW 20:03:42 57° NNE
COSMOS 2455 3.9 19:58:26 10° NNW 20:02:51 33° N 20:02:51 33° N
Cosmos 2278 Rocket 4.2 20:04:12 10° NNW 20:06:48 18° N 20:06:48 18° N
ATLAS 2AS CENTAUR R/B 3.1 20:05:20 10° NW 20:12:42 58° SW 20:13:44 53° SSW
SJ 16-02 3.6 20:09:20 10° NNW 20:10:42 20° NNW 20:10:42 20° NNW
Cosmos 1844 Rocket 3.9 20:09:57 10° NNW 20:13:19 34° N 20:13:19 34° N
Cosmos 2184 Rocket 4.3 20:19:33 10° NNW 20:25:12 63° WNW 20:25:12 63° WNW
Cosmos 2263 Rocket 3.2 20:21:47 10° NW 20:26:51 40° WSW 20:26:51 40° WSW
CZ-4C R/B 3.0 20:28:23 10° NW 20:34:50 71° W 20:34:50 71° W
Cosmos 1697 Rocket 4.3 20:37:22 10° WSW 20:42:17 30° NW 20:43:12 29° NNW
Cosmos 1980 Rocket 4.2 21:00:45 10° WSW 21:03:04 22° W 21:03:04 22° W
